Weather Roundup
Issued by NWS

Home | Current Version | Previous Version | Graphics & Text | Print | Product List | Glossary Off
Versions: 1 2 3 4 5 6 7 8 9 10 11 12 13 14 15 16 17 18 19 20 21 22 23 24 25 26 27 28 29 30 31 32 33 34 35 36 37 38 39 40 41 42 43 44 45 46 47 48 49 50

000
NZUS93 KARX 261910
HRRWXR

CURRENT HOURLY OBSERVATIONS ACROSS
MUCH OF THE UPPER MISSISSIPPI VALLEY
NATIONAL WEATHER SERVICE LA CROSSE WI
100 PM CST THU FEB 26 2015


...SOUTHEAST MINNESOTA...


CITY           SKY/WX    TMP DP  RH WIND       PRES   REMARKS
ROCHESTER      MOSUNNY    4  -5  66 NW15      30.37F WCI -14
ROCHESTER/MAYO FAIR       5  -7  56 W9G17     30.39S WCI  -9
WINONA         PTSUNNY   12   0  57 NW8       30.42F WCI   1
AUSTIN         SUNNY      3  -8  60 NW13      30.39F WCI -14
ALBERT LEA     SUNNY      3  -8  60 NW9       30.41F WCI -11
DODGE CENTER   SUNNY      3  -8  60 NW15      30.38S WCI -15
PRESTON        SUNNY      4  -8  58 N12       30.36F WCI -12
OWATONNA       SUNNY      5  -8  56 NW12      30.42S WCI -11
FARIBAULT      SUNNY      7  -8  51 NW10      30.43F WCI  -8
$$

...ELSEWHERE IN MINNESOTA...


CITY           SKY/WX    TMP DP  RH WIND       PRES   REMARKS
MINNEAPOLIS    MOSUNNY    9  -9  44 NW9G22    30.45F WCI  -4
INTNL FALLS    SUNNY      0 -15  49 W10       30.40F WCI -16
DULUTH         SUNNY      5 -11  47 NW13      30.33F WCI -12
RED WING       MOSUNNY    9  -9  43 N6        30.43F WCI  -1
REDWOOD FALLS  PTSUNNY    4  -8  57 NW18      30.50F WCI -16
MANKATO        MOSUNNY    3  -8  60 NW12      30.46F WCI -13
FAIRMONT       MOSUNNY    3  -6  66 NW16      30.44F WCI -16
$$

...SOUTHWEST WISCONSIN...


CITY           SKY/WX    TMP DP  RH WIND       PRES   REMARKS
LA CROSSE      CLOUDY    13  -2  51 NW15      30.39F WCI  -3
PRAIRIE DU CHI SUNNY     11  -6  45 NW10G18   30.37F WCI  -2
BOSCOBEL       MIX PCPN  13  -5  44 NW16      30.36F WCI  -3
LONE ROCK      SUNNY     12  -7  42 N9        30.35S WCI   0
PLATTEVILLE    SUNNY     10  -3  53 N14       30.30F WCI  -5
FORT MC COY    PTSUNNY   13  -5  46 N10G20    30.36F WCI  -1
CAMP DOUGLAS   MOSUNNY   12  -4  48 N8        30.33F WCI   1
VIROQUA        FAIR      10  -4  52 N12       30.31F WCI  -5
WIS DELLS      PTSUNNY   11  -6  47 NW10      30.30F WCI  -3
$$

...ELSEWHERE IN WISCONSIN...


CITY           SKY/WX    TMP DP  RH WIND       PRES   REMARKS
MILWAUKEE      PTSUNNY   15  -1  49 N12       30.27S WCI   2
MADISON        MOSUNNY   11  -5  48 N15       30.30F WCI  -5
GREEN BAY      PTSUNNY   11  -3  53 N7        30.32F WCI   0
EAU CLAIRE     SUNNY      7  -9  48 N9        30.39F WCI  -7
BLACK RVR FLS  FAIR      11  -8  42 N6        30.36F WCI   2
MEDFORD        PTSUNNY    7  -6  54 NW12      30.27F WCI  -9
WAUSAU         SUNNY      7  -7  52 NW12      30.28F WCI  -8
WIS RAPIDS     SUNNY      8  -8  48 NW12      30.33F WCI  -7
MARSHFIELD     SUNNY      7  -6  55 NW15      30.30F WCI -10
RICE LAKE      MOSUNNY    7 -10  47 NW8       30.40S WCI  -6
$$

...NORTHEAST IOWA...


CITY           SKY/WX    TMP DP  RH WIND       PRES   REMARKS
DECORAH        SUNNY      7  -8  51 NW14      30.35F WCI -10
MASON CITY     SUNNY      2  -6  69 NW15      30.43F WCI -17
CHARLES CITY   SUNNY      3  -6  66 NW15      30.40F WCI -15
OELWEIN        SUNNY      5  -4  66 N14       30.38F WCI -12
$$

...ELSEWHERE IN IOWA...


CITY           SKY/WX    TMP DP  RH WIND       PRES   REMARKS
DES MOINES     MOSUNNY   10  -3  55 NW14      30.45S WCI  -6
IOWA CITY      SUNNY     11  -1  58 NW12      30.39S WCI  -3
FORT DODGE     MOSUNNY    3  -6  66 NW8G18    30.47S WCI -10
$$

...NORTHERN ILLINOIS...


CITY           SKY/WX    TMP DP  RH WIND       PRES   REMARKS
CHICAGO-OHARE  PTSUNNY   18   4  54 N16       30.24R WCI   3
CHICAGO-MIDWAY LGT SNOW  19  12  74 N14       30.24S VSB 3/4 WCI   6
MOLINE         SUNNY     14   2  58 NW10      30.33S WCI   1
ROCKFORD       CLOUDY    14  -1  51 N14       30.30S WCI  -1
PEORIA         CLOUDY    18   8  65 N10       30.28S WCI   6
$$

NOTE: "FAIR" INDICATES FEW OR NO CLOUDS BELOW 12,000 FEET WITH NO
SIGNIFICANT WEATHER AND/OR OBSTRUCTIONS TO VISIBILITY. WIND
SPEEDS ARE IN MILES-PER-HOUR.



USA.gov is the U.S. government's official web portal to all federal, state and local government web resources and services.